www.pogodaiklimat.ru

Погода и климат >> Архив погоды >> Канада >> Grand Etang


ПОГОДА в Grand Etang

  • Прогноз погоды в Grand Etang
  • Монитор погоды в Grand Etang
  • Климат города

АРХИВ ПОГОДЫ в Grand Etang

Время (UTC), дата Ветер
(напр.,м/с)
 
Видим.   Явления Облачность Т
(С)
Тd
(С)
f
(%)
Тe
(С)
Тes
(С)
Комфортность P
(гПа)
Po
(гПа)
Тmin
(С)
Tmax
(С)
R
(мм)
S
(см)
06 17.03 СЗ 6 3600 м слаб. снег 10/10 1000 м
[]
-20.8 -22.8 84 -32 -32 опасность
обморожения
998.1 991.8 -24.5 -14.4 30 16
09 17.03 С 14 300 м в посл. час метель {осадки} н/о -21.8 -24.1 82 -38 -38 опасность
обморожения
1000.6 994.3
12 17.03 С 16 300 м в посл. час метель {осадки} н/о -22.6 -25.0 81 -40 -40 опасность
обморожения
1004.6 998.3 -22.6 -14.4 1
15 17.03 СЗ 14 <100 м в посл. час сильная метель {осадки} н/о -25.7 -28.5 77 -43 -43 опасность
обморожения
1007.9 1001.5
18 17.03 СЗ 15 100 м в посл. час метель н/о -26.6 -29.4 77 -45 -45 опасность
обморожения
1010.6 1004.2 -27.3 -19.8 2
21 17.03 СЗ 11 700 м в посл. час метель {осадки} 10/10 100 м
[]
-27.3 -30.2 76 -44 -44 опасность
обморожения
1013.7 1007.2
00 18.03 З 10 3200 м дым {осадки} ясно -29.0 -32.1 74 -45 -45 опасность
обморожения
1014.7 1008.2 -29.0 -22.6 0.0
03 18.03 З 8 4800 м дым ясно -30.2 -33.4 73 -46 -46 опасность
обморожения
1014.2 1007.7
06 18.03 З 6 6000 м дым ясно -31.0 -34.4 72 -45 -45 опасность
обморожения
1014.1 1007.6 -31.0 -19.8 13
09 18.03 ЮЗ 8 2000 м дым 10/10 50 м
[]
-29.6 -32.9 73 -45 -45 опасность
обморожения
1012.8 1006.3
12 18.03 ЮЗ 9 2000 м дымка 10/10 1500 м
[]
-26.6 -29.5 76 -42 -42 опасность
обморожения
1011.1 1004.6 -31.3 -19.8
15 18.03 З 10 1200 м дым 10/10 600 м
[]
-24.3 -26.8 80 -39 -39 опасность
обморожения
1009.7 1003.2
18 18.03 З 12 700 м в посл. час метель 10/10 600 м
[]
-23.7 -26.2 80 -40 -40 опасность
обморожения
1008.4 1001.9 -31.3 -23.6
21 18.03 З 9 1200 м дым 10/10 600 м
[]
-22.5 -24.9 81 -36 -36 опасность
обморожения
1007.9 1001.5
00 19.03 З 9 1200 м слаб. снег 10/10 600 м
[]
-22.4 -24.7 81 -36 -36 опасность
обморожения
1006.9 1000.5 -31.3 -22.3 0.0
03 19.03 З 6 4800 м слаб. снег {осадки} 5/5 600 м
[]
-24.0 -26.7 78 -36 -36 опасность
обморожения
1006.7 1000.3
06 19.03 СЗ 8 11 км {осадки} ясно -30.0 -33.2 74 -45 -45 опасность
обморожения
1007.7 1001.2 -31.3 -22.3 0.2 18
09 19.03 СЗ 8 11 км ясно -34.5 -38.3 68 -51 -51 опасность
обморожения
1009.4 1002.9
12 19.03 СЗ 7 11 км ясно -37.0 -41.1 65 -53 -52 опасность
обморожения
1011.5 1005.0 -37.0 -22.3
15 19.03 СЗ 6 8000 м дым ясно -36.8 -41.0 65 -52 -48 опасность
обморожения
1013.4 1006.8
18 19.03 СЗ 8 3200 м дым ясно -34.0 -37.9 68 -51 -49 опасность
обморожения
1014.7 1008.1 -37.9 -30.1
21 19.03 С 8 1600 м дым 9/9 50 м
[]
-32.6 -36.4 69 -49 -49 опасность
обморожения
1015.3 1008.7
00 20.03 С 8 2000 м дым 3/3 50 м
[]
-33.3 -37.0 69 -49 -49 опасность
обморожения
1016.9 1010.2 -37.9 -32.4
03 20.03 СЗ 11 1200 м слаб. снег 9/9 100 м
[]
-34.5 -38.3 68 -54 -54 опасность
обморожения
1017.1 1010.4
06 20.03 СЗ 13 1200 м в посл. час метель 3/3 50 м
[]
-34.2 -38.1 68 -54 -54 опасность
обморожения
1016.4 1009.8 -37.9 -30.1 6
09 20.03 СЗ 11 700 м снег н/о -33.8 -37.5 69 -53 -53 опасность
обморожения
1016.8 1010.2
12 20.03 С 12 700 м в посл. час метель 5/5 50 м
[]
-33.8 -37.5 69 -53 -53 опасность
обморожения
1017.1 1010.5 -34.6 -30.1
15 20.03 С 11 700 м в посл. час метель 10/10 100 м
[]
-33.0 -36.7 69 -52 -52 опасность
обморожения
1016.9 1010.3
18 20.03 0 300 м н/о -30.7 -34.1 72 1017.5 1010.9 -34.6 -30.7
21 20.03 СЗ 11 500 м в посл. час метель 10/10 100 м
[]
-28.4 -31.5 75 -46 -46 опасность
обморожения
1018.5 1011.9
00 21.03 С 13 500 м в посл. час метель 9/9 50 м
[]
-29.1 -32.4 73 -47 -47 опасность
обморожения
1019.0 1012.4 -34.6 -28.1
03 21.03 СЗ 12 2400 м в посл. час метель ясно -30.0 -33.2 74 -48 -48 опасность
обморожения
1019.7 1013.1
06 21.03 СЗ 9 4000 м дым ясно -31.4 -34.9 71 -48 -48 опасность
обморожения
1020.1 1013.5 -34.6 -28.1 8
09 21.03 З 4 4800 м дым ясно -32.3 -35.9 70 -44 -44 опасность
обморожения
1020.4 1013.8
12 21.03 З 4 8000 м дым ясно -33.4 -37.1 69 -46 -44 опасность
обморожения
1019.9 1013.3 -33.4 -28.1
15 21.03 ЮЗ 6 11 км ясно -32.6 -36.2 70 -47 -43 опасность
обморожения
1018.5 1011.9
18 21.03 З 7 11 км ясно -30.3 -33.7 72 -45 -43 опасность
обморожения
1017.3 1010.7 -33.9 -30.3
21 21.03 ЮЗ 6 14 км ясно -28.5 -31.8 73 -41 -41 опасность
обморожения
1016.7 1010.1
00 22.03 ЮЗ 5 12 км ясно -28.8 -32.1 73 -41 -41 опасность
обморожения
1016.4 1009.8 -33.9 -28.1
03 22.03 ЮЗ 4 11 км ясно -31.8 -35.3 71 -44 -44 опасность
обморожения
1016.3 1009.7
06 22.03 ЮЗ 4 12 км ясно -33.8 -37.5 69 -45 -45 опасность
обморожения
1015.8 1009.2 -33.9 -28.1 7
09 22.03 0 н/о 9/0 2000 м
[]
-34.0 -37.7 69 1015.6 1009.0
12 22.03 ЮЗ 7 12 км 10/10 1500 м
[]
-30.6 -34.0 72 -46 -46 опасность
обморожения
1014.5 1007.9 -34.6 -28.1
15 22.03 З 6 9000 м дым 3/3 1500 м
[]
-30.9 -34.4 71 -45 -42 опасность
обморожения
1013.7 1007.1
18 22.03 З 8 6000 м дым 3/0
[]
-29.3 -32.6 73 -44 -43 опасность
обморожения
1012.6 1006.0 -34.6 -29.3
21 22.03 З 6 8000 м дым 3/3 1000 м
[]
-26.1 -29.0 76 -39 -39 опасность
обморожения
1011.7 1005.2
00 23.03 З 5 9000 м дымка ясно -27.6 -30.6 75 -40 -40 опасность
обморожения
1010.8 1004.3 -34.6 -25.8
03 23.03 З 4 11 км слаб. снег ясно -31.2 -34.7 71 -43 -43 опасность
обморожения
1010.2 1003.7
06 23.03 СЗ 6 4800 м слаб. снег 5/5 300 м
[]
-33.2 -36.9 69 -47 -47 опасность
обморожения
1010.7 1004.1 -34.6 -25.8 19
09 23.03 СЗ 7 6000 м дым ясно -34.6 -38.4 68 -51 -51 опасность
обморожения
1012.0 1005.5
12 23.03 СЗ 9 2400 м дым ясно -34.0 -37.7 69 -51 -51 опасность
обморожения
1013.8 1007.2 -34.6 -25.8
15 23.03 СЗ 9 2400 м дым ясно -32.6 -36.2 70 -50 -49 опасность
обморожения
1015.2 1008.6
18 23.03 СЗ 9 2400 м дым ясно -29.8 -33.1 73 -46 -45 опасность
обморожения
1017.1 1010.5 -34.6 -29.8
21 23.03 СЗ 9 4000 м дым ясно -29.0 -32.3 73 -45 -45 опасность
обморожения
1018.1 1011.5
00 24.03 СЗ 8 9000 м дым 3/0 2000 м
[]
-30.1 -33.5 72 -45 -45 опасность
обморожения
1019.5 1012.9 -34.6 -28.9
03 24.03 СЗ 6 11 км ясно -31.1 -34.5 72 -45 -45 опасность
обморожения
1020.1 1013.5

 

Местоположение метеостанции Grand Etang (Канада): широта 46.55 долгота -61.05 высота над уровнем моря 13 м.

В архиве по умолчанию представлена погода в Grand Etang за последнюю неделю. Архивные данные за месяц целиком и за предыдущие месяцы, начиная с января 2011 года, Вы можете получить, выбрав интересующий диапазон дат из раскрывающегося списка и нажав кнопку "Ввод!".

Внимание! Время в таблицах - всемирное. Для получения местного времени необходимо прибавить поправку, которая в Grand Etang равна -4 ч.

Смотрите также архив погоды в соседних городах и на ближайших метеорологических станциях:

Погода в Cheticamp (Канада) (13 км)
Погода в North Mountain (Канада) (42 км)
Погода в Ingonish Beach (Канада) (51 км)
Погода в East Point (Канада) (71 км)
Погода в Sydney (Канада) (88 км)
Погода в Sydney Rcs (Канада) (88 км)
Погода в St Paul Island (Канада) (103 км)
Погода в Port Hawkesbury (Канада) (103 км)
Погода в Lles de la Madelein (Канада) (111 км)
Погода в Lles de la Madelein (Канада) (111 км)

Пояснения к столбцам:

Ветер - указаны скорость ветра в м/с - средняя за 10 мин, порывы в срок и между сроками (в фигурных скобках) и направление, откуда дует ветер: С - северный, СВ - северо-восточный, В - восточный, ЮВ - юго-восточный, Ю - южный, ЮЗ - юго-западный, З - западный, СЗ - северо-западный.
Видимость - горизонтальная дальность видимости в метрах или километрах. При видимости от 1 до 10 км при отсутствии осадков обычно наблюдается дымка, при ухудшении видимости до 1 км и менее - туман. В сухую погоду видимость может ухудшаться дымом, пылью или мглою.
Явления - указаны атмосферные явления, наблюдавшиеся в срок или в последний час перед сроком; фигурными скобками обозначены явления, наблюдавшиеся между сроками (за 1-3 часа до срока); квадратными скобками обозначены град или гололедные отложения с указанием их диаметра в мм.
Облачность - указаны через наклонную черту общая и нижняя облачность в баллах и высота нижней границы облаков в метрах; квадратными скобками обозначены формы облаков: Ci - перистые, Cs - перисто-слоистые, Cc - перисто-кучевые, Ac - высококучевые, As - высокослоистые, Sc - слоисто-кучевые, Ns - слоисто-дождевые, Cu - кучевые, Cb - кучево-дождевые. Подробнее классификацию облаков см. в Атласе облаков (PDF).
T - Температура воздуха - температура, измеренная на высоте 2 м над землей.
Td - Температура точки росы - температура, при понижении до которой содержащийся в воздухе водяной пар достигнет насыщения.
f - Относительная влажность воздуха - влажноcть воздуха, измеренная на высоте 2 м над землей.
Te - Эффективная температура - температура, которую ощущает одетый по сезону человек в тени. Характеристика душности погоды. При расчете учитывается влияние влажности воздуха и скорости ветра на теплоощущения человека.
Tes - Эффективная температура на солнце - температура, которую ощущает человек, с поправкой на солнечный нагрев. Характеристика знойности погоды. Зависит от высоты солнца над горизонтом, облачности и скорости ветра. Ночью, в пасмурную погоду, а также при ветре 12 м/с и более поправка равна нулю.
P - Атмосферное давление - приведенное к уровню моря атмосферное давление.
Po - Атмосферное давление - измеренное на уровне метеостанции атмосферное давление.
Tmin - Минимальная температура - минимум температуры воздуха на высоте 2 м над землей.
Tmax - Максимальная температура - максимум температуры воздуха на высоте 2 м над землей.
R - Количество осадков - Количество выпавших осадков, мм. При наведении курсора мыши на число - период времени, за который выпало указанное количество осадков.
S - Снежный покров - Высота снежного покрова, см. При наведении курсора мыши на число - состояние снежного покрова и степень покрытия местности в баллах.